{"data":{"norad_id":68805,"epoch":"2026-09-19T09:06:26.484480Z","epoch_age_seconds":136822,"freshness":"FRESH","line1":"1 68805U 26089D   26262.37947320  .00012268  00000+0  38163-3 0  9997","line2":"2 68805  97.2853 108.1041 0001122 110.4149 249.7214 15.33451987 23082","mean_motion":15.33451987,"eccentricity":0.0001122,"inclination_deg":97.2853,"raan_deg":108.1041,"arg_perigee_deg":110.4149,"mean_anomaly_deg":249.7214,"bstar":0.00038163,"rev_number":2308,"period_min":93.905776783867,"perigee_km":464.75452757771,"apogee_km":466.29024474396,"semimajor_km":6843.6593861608,"source":"CELESTRAK","updated_at":"2026-09-20T09:00:44.005948Z"}}